Flag for U.S.A. Weather past 2 weeks in Norfolk, Virginia, U.S.A.

Now
65 °F

Partly sunny.


Feels Like: 65 °F
Forecast: 45 / 68 °F
Wind: No wind

Location: Norfolk Naval Air Station

Current Time: Oct 20, 2014 at 7:43:43 PM

Latest Report: Oct 20, 2014 at 6:59 PM


Visibility: 10 mi

Pressure: 30.01 "Hg

Humidity: 51%

Dew point: 46 °F

Location of NorfolkLocation

Historic Weather in Norfolk — Graph

°F

Norfolk temperature yesterday

Maximum temperature yesterday: 64 °F (at 2:59 PM)
Minimum temperature yesterday: 53 °F (at 11:59 PM)
Average temperature yesterday: 59 °F

Past Weeks' High & Low Weather Summary

 TemperatureHumidityPressure
High83 °F (Oct 14, 1:59 PM)90% (Oct 11, 6:59 AM)30.28 "Hg (Oct 11, 6:59 AM)
Low48 °F (Oct 20, 2:59 AM)31% (Oct 6, 2:59 PM)29.70 "Hg (Oct 18, 1:59 PM)
Average68 °F64%30.02 "Hg
* Reported Oct 5 6:59 PM — Oct 20 6:59 PM, Norfolk, Weather by CustomWeather, © 2014

Note: Actual official high and low records may vary slightly from our data, if they occured in-between our weather recording intervals... More about our weather records

Advertising

Norfolk weather history for previous 24 hours

 ConditionsComfort  
Time TempWeatherWind HumidityBarometerVisibility
6:59 PM
Oct 20
65 °FPartly sunny.No wind51%30.01 "Hg10 mi
5:59 PM68 °FSunny.7 mph45%30.01 "Hg10 mi
4:59 PM69 °FScattered clouds.7 mph39%30.01 "Hg10 mi
3:59 PM70 °FScattered clouds.10 mph31%30.03 "Hg10 mi
2:59 PM69 °FScattered clouds.9 mph33%30.05 "Hg10 mi
1:59 PM68 °FPartly sunny.9 mph33%30.07 "Hg10 mi
12:59 PM67 °FPartly sunny.10 mph35%30.11 "Hg10 mi
11:59 AM66 °FPartly sunny.15 mph36%30.15 "Hg10 mi
10:59 AM63 °FPartly sunny.10 mph40%30.17 "Hg10 mi
9:59 AM60 °FPartly sunny.7 mph42%30.18 "Hg10 mi
8:59 AM56 °FPartly sunny.5 mph58%30.19 "Hg10 mi
7:59 AM52 °FPassing clouds.6 mph66%30.17 "Hg10 mi
6:59 AM49 °FPassing clouds.3 mph77%30.16 "Hg10 mi
5:59 AM49 °FPassing clouds.5 mph84%30.15 "Hg10 mi
4:59 AM50 °FClear.3 mph80%30.14 "Hg10 mi
3:59 AM48 °FPassing clouds.5 mph80%30.14 "Hg10 mi
2:59 AM48 °FClear.3 mph74%30.14 "Hg10 mi
1:59 AM50 °FPassing clouds.No wind68%30.14 "Hg10 mi
12:59 AM53 °FPassing clouds.5 mph59%30.14 "Hg10 mi
11:59 PM
Oct 19
53 °FPassing clouds.No wind61%30.14 "Hg10 mi
10:59 PM59 °FPassing clouds.8 mph48%30.14 "Hg10 mi
9:59 PM57 °FPassing clouds.8 mph46%30.13 "Hg10 mi
8:59 PM58 °FPassing clouds.6 mph41%30.12 "Hg10 mi
7:59 PM58 °FPassing clouds.8 mph41%30.11 "Hg10 mi
Weather by CustomWeather, © 2014

See weather overviewHow to use our weather pages